Вернуться в каталог

STARLINK-32144

АктивенСвязьVLEO
NORAD 60269·PAYLOAD·🇺🇸 United States

Запущен Jul 27, 2024 с Cape Canaveral Space Force Station

Loading…

Ближайшие Пролёты (ближайшие 24 часа)

TLE

СвежийSource: CelesTrak SupGP

Эпоха: Sep 14, 2026, 20:40 UTC

1 60269C 24131Q   26257.86159722  .00055932  00000+0  17988-2 0  2571
2 60269  53.1568 252.2530 0000767 149.6171 176.8693 15.31671680    10

Отслеживайте STARLINK-32144 в реальном времени с AllMySat

Download on the App Store